Back to catalog

NOAA 16 DEB

AlivePO
NORAD 41133·DEBRIS·🇺🇸 United States

Launched Sep 21, 2000 from Vandenberg Space Force Base

Loading…

Next Passes (next 24 hours)

TLE

FreshSource: Space-Track

Epoch: Sep 14, 2026, 11:29 UTC

1 41133U 00055BQ  26257.47871882  .00014585  00000-0  23801-2 0  9998
2 41133  98.9244  83.5792 0012129  29.4443 330.7442 14.70990630559590

Track NOAA 16 DEB in real time with AllMySat

Download on the App Store